Wind_Speed
15 14 14 14 14 15 15 15 15 15 15 15 15 14 13 12 10 9 8 7 7 6 6 6 7 9 11 12 13 14 15 15 16 16 16 16 15 15 15 14 14 14 14 14 15 16 16 17 18 18 19 19 18 18 18 17 17 16 16 16 15 15 14 14 13 13 13 12 12 12 12 12 11 10 10 10 10 12 12 12 12 12 11 11 11
15 15 15 15 15 16 16 16 16 16 16 16 17 16 15 14 12 11 10 9 8 8 7 7 8 10 11 12 14 15 16 16 17 17 17 16 16 16 15 15 15 14 14 14 14 15 15 16 17 18 18 19 18 18 18 18 18 17 16 16 16 16 15 15 14 14 13 13 12 12 12 12 11 11 10 10 11 12 12 12 12 12 12 12 12
16 16 16 16 16 17 17 17 16 16 17 17 17 17 17 16 14 14 13 11 10 10 10 9 9 10 12 13 15 15 16 17 19 20 19 18 17 16 16 15 15 15 15 15 15 15 16 16 17 17 18 18 18 18 18 18 18 18 17 17 17 17 17 16 16 15 14 13 13 13 12 12 12 11 11 11 12 12 12 13 12 13 13 13 13
17 17 16 16 17 18 18 18 17 17 18 18 18 18 18 17 16 16 15 13 12 12 11 11 11 12 13 14 15 16 17 18 20 21 22 21 20 18 17 16 16 16 16 16 16 16 17 17 17 17 18 17 17 18 18 18 18 18 18 17 17 17 17 17 17 17 16 15 14 14 14 13 13 12 12 12 13 13 13 13 13 13 14 14 14
18 17 17 17 18 18 18 18 17 18 19 19 19 19 19 18 18 18 17 16 14 13 13 13 13 13 14 15 16 17 18 18 19 21 23 23 22 20 19 18 18 18 18 17 17 18 18 19 18 18 18 18 17 17 18 18 17 17 17 17 17 17 17 18 18 18 18 17 16 15 15 15 14 14 14 14 14 14 14 14 14 14 14 15 15
18 18 18 18 18 18 19 18 18 18 19 20 20 20 20 19 19 19 19 18 16 15 15 14 14 14 15 15 16 17 18 18 19 21 23 24 23 21 20 20 20 20 20 19 19 19 20 20 20 19 19 18 18 17 17 17 17 17 17 17 17 17 17 18 18 18 18 18 18 17 17 17 16 16 16 16 16 16 16 15 15 15 15 15 16
19 19 19 19 18 19 19 19 18 19 20 21 21 21 21 21 21 21 20 19 18 17 16 16 15 15 15 15 16 17 18 18 20 21 23 24 23 22 21 21 21 21 22 21 21 20 21 21 20 20 20 19 19 18 17 17 18 18 17 17 17 17 17 18 18 19 19 19 19 19 19 18 18 18 18 18 18 18 17 17 17 17 16 16 16
19 19 20 19 19 19 20 20 20 20 21 22 22 22 22 22 22 22 21 20 19 18 17 17 17 16 16 16 16 17 18 19 20 21 23 24 23 22 22 22 22 23 22 22 22 22 21 21 20 20 20 20 20 20 19 18 18 18 19 18 17 17 17 17 18 19 19 20 20 20 20 20 20 19 19 20 20 19 19 19 19 18 17 17 17
19 20 20 19 19 20 20 21 21 21 22 22 22 22 23 23 23 22 21 20 19 19 18 18 18 17 16 16 15 16 18 19 21 22 22 23 23 23 23 23 23 23 23 22 22 22 22 21 21 20 20 20 21 21 20 19 19 19 19 19 19 18 17 17 17 18 19 20 20 20 21 21 21 21 21 21 21 21 21 20 20 20 19 18 18
19 19 20 20 20 20 21 22 21 21 22 23 23 23 23 23 23 22 21 20 20 19 19 18 18 17 16 15 15 16 18 19 21 22 22 23 23 23 24 24 24 23 23 21 21 21 21 21 21 21 21 21 21 21 21 20 20 20 20 20 19 19 18 18 18 18 19 19 20 21 22 22 22 23 22 22 22 22 22 21 21 21 20 20 19
18 19 20 20 20 21 22 22 21 21 22 23 23 24 24 23 22 22 21 20 20 19 19 18 18 17 16 16 15 16 17 19 21 22 22 23 24 24 25 25 24 23 21 21 20 21 21 21 22 22 23 23 23 22 22 22 21 21 21 21 20 19 19 19 18 18 19 20 21 22 22 22 23 24 24 24 24 23 23 23 23 22 21 21 20
18 19 19 20 21 22 22 21 21 22 22 23 24 25 25 23 22 22 22 21 20 19 18 18 18 17 17 16 15 16 17 19 20 22 23 23 24 25 26 26 24 22 21 20 20 20 21 22 23 23 23 23 23 23 23 23 23 22 22 22 21 20 20 20 20 19 19 20 21 22 23 23 23 24 25 25 25 25 25 24 24 24 23 21 21
19 19 19 20 21 22 22 21 21 21 22 22 23 25 25 23 22 22 22 20 19 18 18 18 18 18 18 17 16 16 17 19 20 21 23 24 25 25 26 26 24 21 20 20 20 20 22 23 24 24 24 23 23 23 24 23 24 24 24 24 23 23 22 23 22 21 20 20 21 22 23 23 24 24 25 26 25 26 26 25 25 26 25 23 22
20 19 21 22 22 22 21 21 21 20 20 21 23 24 24 23 22 21 20 19 18 17 18 18 18 18 18 17 17 17 18 19 20 21 22 23 25 24 24 24 22 20 19 19 19 20 22 23 24 24 23 23 23 23 23 24 24 25 25 26 26 26 25 25 25 24 22 21 21 22 23 23 24 24 25 26 26 26 27 27 26 27 27 26 25
21 21 23 23 23 22 21 21 20 19 19 20 22 23 23 23 22 20 19 17 17 17 18 18 18 18 17 17 17 18 19 20 20 21 22 23 24 24 23 22 21 19 18 18 19 21 22 23 23 23 22 22 22 22 23 24 25 25 26 27 27 28 28 28 28 27 26 24 23 22 23 23 24 24 25 25 27 28 28 28 28 28 27 27 27
23 24 24 23 23 22 21 20 19 19 19 20 21 22 22 20 19 19 17 16 17 17 18 18 17 16 16 16 17 19 20 21 22 22 23 24 25 25 23 21 20 19 18 18 19 20 21 22 22 22 22 22 22 22 22 23 25 26 27 28 29 29 30 31 30 29 28 27 25 24 23 24 24 25 25 26 27 28 29 29 30 29 29 28 28
25 25 25 24 23 21 20 19 18 18 19 19 20 20 20 18 18 17 16 16 17 18 18 17 16 15 15 16 17 19 20 22 24 24 24 25 26 26 24 22 20 19 19 18 18 19 20 21 22 23 23 23 23 23 23 24 25 26 27 28 30 31 32 32 32 32 30 29 28 26 25 24 24 25 25 26 27 28 30 30 30 30 30 29 29
27 26 25 24 23 21 20 19 18 18 19 19 19 19 19 18 18 17 15 16 17 17 17 16 15 14 15 16 17 18 20 22 24 26 27 27 28 27 26 24 22 20 19 18 18 19 19 20 21 23 24 24 24 24 25 25 25 27 28 29 31 32 33 33 33 33 32 31 29 28 27 26 25 25 25 25 26 27 29 31 31 30 30 30 30
28 27 26 24 23 21 20 18 18 19 19 19 19 19 19 19 18 16 16 16 17 16 16 15 15 15 15 16 16 18 19 21 22 24 26 29 30 29 27 25 23 21 20 20 20 20 19 19 21 22 23 24 24 25 26 26 26 27 28 29 31 32 33 34 34 34 33 32 30 29 28 27 26 26 26 25 26 26 28 30 31 32 31 31 31
29 28 26 24 22 21 19 19 18 19 19 19 19 19 20 19 18 16 16 17 16 16 15 15 15 16 16 16 17 18 19 21 22 22 23 26 30 31 30 27 24 22 21 21 21 21 21 21 21 22 23 24 24 25 26 27 27 26 27 28 30 31 32 33 34 33 33 32 30 29 28 28 27 27 27 26 26 26 27 29 31 32 32 32 32
29 28 25 24 23 21 20 19 19 18 18 19 19 20 20 20 18 17 17 16 16 16 15 15 16 16 16 17 17 19 20 21 22 22 22 23 25 28 30 30 26 23 22 22 22 21 21 22 22 23 24 24 24 25 25 25 26 26 26 27 28 29 30 32 32 33 32 31 30 29 28 28 27 26 27 26 26 26 26 28 31 32 32 33 33
29 26 25 25 23 21 20 20 19 18 18 18 19 20 21 19 18 17 17 17 16 16 16 16 16 16 17 17 18 19 20 21 22 22 22 23 23 24 26 28 28 26 26 25 24 23 22 22 22 23 23 24 24 24 24 24 25 25 25 25 26 27 29 30 31 32 32 31 30 29 29 29 28 27 26 26 26 26 26 27 29 30 31 33 34
29 27 26 25 23 21 21 21 19 18 18 18 19 20 20 19 18 18 17 17 17 17 17 16 17 17 17 18 19 20 21 22 22 22 22 22 22 23 24 25 26 26 27 27 27 25 24 23 23 23 22 23 23 23 23 23 24 24 24 25 25 27 28 29 30 31 32 31 31 30 29 29 29 28 26 25 25 27 27 27 27 29 30 31 33
29 28 27 26 24 23 23 22 20 18 18 19 19 20 19 19 18 18 17 17 17 17 17 17 17 17 18 18 19 20 21 22 22 22 22 22 22 22 23 24 24 25 25 26 27 27 26 24 24 23 23 23 23 23 24 24 24 25 25 25 25 27 28 29 30 31 32 32 31 31 30 30 30 29 27 25 25 26 27 27 27 28 29 30 32
28 29 28 26 25 24 24 22 20 18 19 19 19 19 19 18 18 18 17 17 17 17 17 17 17 18 18 19 19 20 21 22 22 22 22 22 21 22 22 23 23 24 24 25 26 26 26 25 24 24 23 23 23 24 25 25 25 26 27 27 27 28 28 29 30 31 31 31 31 30 30 30 30 29 28 26 25 25 26 27 27 28 29 30 31
29 30 28 25 22 22 23 22 19 18 19 19 20 20 19 18 18 18 17 16 16 17 17 17 17 18 19 19 20 20 21 22 22 22 22 21 21 21 22 23 24 24 24 25 25 26 26 25 24 24 24 24 24 25 25 26 27 27 28 28 29 29 29 30 30 31 31 31 30 30 30 30 30 30 29 27 26 24 25 27 27 28 30 31 32
31 31 28 25 22 21 22 21 19 19 20 20 21 21 20 19 19 18 17 16 16 17 17 17 18 19 19 20 20 21 22 23 22 22 22 21 21 21 21 23 25 25 25 24 25 25 25 25 25 25 26 26 26 26 26 27 27 28 28 28 29 30 30 30 31 31 31 31 30 29 29 30 30 30 29 28 26 25 24 25 27 28 30 32 33
30 30 29 27 24 22 22 21 20 20 21 21 22 22 21 21 20 18 17 16 16 17 17 17 18 19 19 20 21 22 23 23 23 23 23 22 22 22 22 22 23 25 25 25 25 25 24 25 25 26 26 27 27 27 27 28 28 28 28 29 30 31 31 31 31 31 32 31 30 29 29 29 30 30 29 28 27 26 24 25 27 28 30 32 34
30 30 29 28 25 24 23 22 21 21 21 22 22 22 21 20 19 17 16 16 16 17 17 17 18 19 20 21 21 22 23 23 24 23 23 23 23 23 22 22 21 22 23 23 24 25 25 25 26 27 28 28 28 29 29 29 29 29 29 30 30 31 32 32 32 32 32 31 30 29 28 29 29 30 29 29 27 26 25 25 26 27 29 32 35
30 29 30 28 25 24 23 22 21 21 22 22 22 21 20 19 18 16 16 16 16 17 17 18 18 19 20 21 22 23 24 24 24 24 23 23 23 23 22 22 21 20 20 21 21 22 24 25 26 27 28 28 29 29 29 29 30 30 31 31 31 32 32 33 32 32 32 32 30 29 28 28 29 29 29 29 28 27 26 25 26 26 27 29 34
28 25 28 27 25 23 22 21 20 20 21 22 22 21 19 19 18 16 16 16 17 18 18 18 19 19 21 22 23 24 24 24 24 24 24 24 24 23 22 21 21 20 19 20 20 21 23 24 26 27 28 28 28 28 29 29 30 30 30 31 31 31 31 31 32 32 32 32 31 30 28 27 28 29 30 29 28 28 27 26 26 26 25 26 28
27 25 27 26 23 22 21 20 20 20 20 20 20 20 20 20 18 17 17 17 18 18 18 18 19 20 21 22 24 25 25 25 25 24 24 24 23 22 22 21 21 20 20 20 21 22 23 24 25 26 26 27 27 27 27 28 28 28 28 28 28 28 28 29 30 30 31 32 32 31 30 28 27 28 29 30 29 28 27 27 26 25 25 24 25
25 26 27 25 22 22 21 21 21 20 19 19 19 21 22 21 20 18 18 18 18 19 19 19 19 20 21 23 24 25 25 25 25 24 24 23 22 22 21 21 20 20 20 21 22 23 23 24 25 25 25 25 25 25 25 25 25 26 26 27 27 28 28 28 29 30 31 32 32 32 31 30 28 28 29 30 30 29 28 28 27 26 25 24 24
24 24 25 24 22 22 21 21 21 19 19 19 20 21 22 23 21 20 19 19 19 19 19 19 19 21 22 24 25 25 25 25 24 24 23 22 22 21 21 21 21 20 21 22 23 23 24 24 24 24 23 23 22 23 23 24 25 27 28 29 30 31 31 31 31 32 32 33 34 34 33 31 29 28 28 29 30 30 29 28 28 27 26 26 25
24 24 25 22 20 20 21 21 21 20 20 21 22 22 22 22 21 20 19 20 20 20 19 19 20 21 23 24 25 25 25 24 23 22 22 21 21 21 21 21 21 21 22 22 23 23 23 23 22 22 22 22 23 24 25 27 28 29 30 32 33 33 34 35 35 34 35 35 36 36 36 35 32 30 29 29 30 30 30 29 29 28 27 27 26
23 24 23 20 19 20 20 21 21 20 21 22 22 21 20 21 21 20 20 21 21 19 19 19 21 22 24 24 24 25 24 22 22 21 21 20 21 21 21 21 21 21 22 22 22 22 21 20 20 21 21 23 24 25 27 28 29 30 31 33 34 35 36 37 37 37 37 36 37 37 38 37 35 32 30 30 30 30 30 30 30 29 28 27 27
22 22 21 18 18 19 20 21 20 19 20 20 20 20 19 20 20 20 21 21 20 19 19 20 21 23 24 24 24 24 22 21 21 20 20 20 21 22 21 21 21 21 21 21 20 19 19 19 20 21 22 24 25 26 27 29 31 33 34 36 37 37 38 38 39 39 39 39 38 38 38 38 38 36 33 31 31 31 31 31 31 31 30 28 28
22 21 19 18 19 19 18 18 17 17 18 19 19 20 20 20 20 20 21 20 20 20 20 21 22 23 24 24 24 22 21 20 20 19 20 21 22 22 21 20 20 20 20 19 18 18 18 19 21 22 24 24 25 27 28 31 34 37 39 40 41 42 42 41 41 41 42 41 41 40 40 39 39 38 35 33 31 31 32 32 32 32 32 30 29
21 21 19 18 18 17 16 15 16 17 19 19 20 20 20 20 20 20 20 20 20 21 21 22 22 23 23 24 23 21 20 20 20 20 21 22 23 21 20 19 19 19 18 17 17 18 19 21 22 23 24 25 26 28 31 34 37 39 41 43 44 45 45 45 45 45 45 44 43 43 42 41 41 40 39 36 33 32 32 32 32 32 33 33 31
20 19 17 16 16 16 14 14 16 18 19 19 19 20 20 20 20 20 20 21 21 21 22 22 22 22 23 23 21 20 20 20 20 21 22 23 22 20 19 18 18 18 17 17 18 20 21 22 23 24 24 25 27 30 33 36 39 41 43 45 46 48 49 49 50 50 49 48 46 44 42 42 42 41 41 39 36 34 33 32 32 32 32 33 33
17 16 15 15 16 15 15 16 18 19 19 18 19 20 20 21 21 20 21 22 22 22 22 22 22 22 22 21 20 20 21 21 21 22 23 23 21 19 18 18 18 17 17 18 20 21 22 23 24 24 25 26 28 31 34 38 41 43 46 48 50 51 52 53 54 53 51 48 46 44 42 41 41 41 41 41 39 36 34 33 32 32 32 32 33
14 14 15 15 15 15 16 18 19 20 19 20 20 21 21 21 21 21 22 23 22 22 22 21 21 22 21 20 20 22 22 22 22 23 23 22 19 18 18 17 17 17 18 20 21 22 23 24 24 25 26 27 29 32 35 39 42 45 48 50 52 53 54 55 54 52 49 46 44 42 40 39 39 39 40 40 40 38 36 34 33 32 32 32 32
14 15 15 15 15 16 18 19 19 19 20 21 21 21 21 21 21 22 23 23 22 22 22 21 21 21 20 20 21 23 23 23 23 23 23 21 19 18 18 17 17 18 19 21 22 23 24 24 25 25 26 28 30 33 37 40 43 47 49 51 53 53 54 53 50 47 44 42 40 39 38 37 36 36 37 38 38 38 37 36 34 33 33 32 31
16 17 17 16 16 18 19 19 19 20 20 21 21 21 21 21 22 23 23 22 22 22 21 20 21 21 20 21 22 23 23 23 23 23 22 20 19 19 18 18 18 19 21 22 23 24 25 25 25 26 27 28 31 34 37 41 44 47 50 52 53 53 53 50 46 42 40 38 37 36 35 34 33 33 33 34 35 36 36 36 35 34 34 33 32
17 18 18 18 18 18 18 18 18 19 20 20 20 20 21 22 23 23 23 23 23 23 21 21 21 20 20 22 23 23 23 23 23 22 21 20 20 19 19 18 19 20 21 23 24 25 25 26 26 27 28 29 32 35 38 42 45 48 50 52 53 53 51 47 42 39 37 36 35 34 33 32 30 29 29 30 31 32 33 34 35 35 35 34 33
18 19 19 19 18 18 17 17 18 19 20 20 20 21 22 22 22 22 23 23 23 22 21 21 21 20 21 22 23 23 22 22 23 23 21 20 20 19 19 19 19 20 22 23 24 25 26 26 27 27 28 30 32 35 38 42 45 48 51 52 52 51 49 44 40 37 36 35 34 33 32 31 29 27 26 26 26 27 28 30 31 33 34 34 34
18 18 18 18 18 18 18 18 19 20 20 20 21 21 21 21 21 23 24 23 22 21 20 21 20 20 22 23 23 23 23 23 24 23 22 21 21 20 19 19 20 21 23 24 25 26 26 27 27 28 29 31 33 35 38 42 45 48 51 52 51 50 47 43 39 37 35 34 34 33 32 31 29 27 25 24 23 23 23 25 27 29 31 33 34
18 18 18 18 19 19 19 20 20 20 20 21 21 21 21 21 21 22 22 21 20 19 19 20 20 21 23 23 23 23 24 24 25 24 23 22 22 21 21 20 21 22 24 25 26 26 27 27 28 29 30 31 33 36 38 42 45 48 50 51 51 49 46 42 39 37 35 34 33 32 31 30 29 27 25 24 22 21 20 21 22 24 27 29 31
19 19 19 19 20 20 21 21 21 21 21 22 22 21 21 20 19 19 18 18 18 18 18 19 20 22 23 24 24 25 25 26 25 24 23 23 22 22 21 21 21 23 24 25 26 27 27 28 28 29 30 32 34 36 38 41 44 48 50 50 49 47 44 40 38 36 35 34 33 32 31 30 28 27 26 24 22 21 19 18 19 20 22 25 28
21 21 21 22 22 22 22 22 23 22 22 22 22 22 21 20 18 18 18 18 18 18 18 19 21 23 24 24 25 26 26 26 25 25 24 23 23 22 21 21 21 23 24 25 27 28 28 28 29 29 30 32 34 36 38 40 44 47 48 49 48 46 43 39 37 36 35 34 33 32 31 30 29 28 27 25 24 22 20 18 17 17 19 20 23
23 23 23 24 24 24 24 24 24 23 23 23 23 22 21 21 21 20 19 19 19 19 19 20 22 24 25 25 26 27 27 26 25 24 24 23 23 23 21 21 22 23 24 26 27 28 28 29 29 30 31 32 34 35 37 40 42 45 47 47 47 44 42 39 36 36 35 34 33 32 31 29 28 27 27 26 25 23 22 19 17 15 15 17 19
Wind_Direction
249 249 248 247 245 244 242 241 242 243 247 252 255 258 261 263 268 274 280 283 289 297 307 319 327 329 332 335 336 336 337 338 338 339 340 340 340 341 342 343 345 346 346 346 347 348 347 347 349 350 351 352 351 348 344 338 333 330 325 319 313 309 306 305 304 302 296 293 295 296 294 291 284 274 264 250 238 234 236 241 245 245 244 243 244
248 248 248 248 248 247 246 245 244 245 248 252 256 258 260 262 265 269 273 276 278 285 293 304 315 319 323 327 329 330 331 333 334 335 336 336 335 334 334 335 336 338 339 339 341 343 344 343 345 347 349 351 351 349 346 341 337 333 328 323 317 311 307 304 302 300 298 293 291 292 292 290 283 274 264 253 243 239 240 244 247 249 247 245 243
246 246 248 248 250 250 249 248 247 247 249 252 256 259 261 263 264 266 269 271 274 280 288 297 308 313 317 322 325 327 329 331 333 333 334 333 331 329 329 328 329 330 331 332 334 336 337 337 340 343 346 348 349 349 347 343 338 334 329 324 319 314 310 307 303 300 299 296 291 288 288 287 283 276 268 259 251 247 247 248 250 252 251 248 244
245 245 246 248 250 251 252 252 251 250 251 253 257 260 262 264 265 266 267 268 272 277 284 293 302 308 314 319 322 324 327 329 331 332 332 331 328 327 327 326 326 327 328 328 329 330 331 333 335 338 341 344 345 346 346 345 341 336 331 325 319 316 313 310 306 303 300 298 294 290 287 285 283 277 271 265 260 255 254 254 254 254 254 251 248
245 244 245 247 250 253 254 255 254 254 254 255 257 260 263 265 266 267 267 267 269 274 280 288 296 303 310 315 319 322 324 325 327 329 330 328 327 326 326 327 328 328 328 327 327 327 329 330 332 335 337 338 339 341 343 343 342 338 332 325 321 318 316 312 309 306 303 300 297 294 289 285 282 279 273 268 264 262 260 259 258 257 256 253 250
245 245 245 247 249 253 255 257 257 257 257 258 258 260 262 265 266 267 267 266 267 270 276 282 290 298 305 311 315 318 320 320 322 326 328 328 325 324 324 326 328 328 327 327 327 328 328 329 330 331 332 332 333 334 337 338 338 337 332 326 325 323 320 316 312 308 304 301 299 296 293 287 282 278 274 270 266 263 262 262 260 258 257 256 253
245 245 246 247 249 252 254 257 259 259 260 261 261 262 262 263 265 265 265 265 265 268 273 279 285 292 298 304 308 311 315 317 319 324 327 327 324 322 322 324 327 327 327 326 327 327 327 326 327 327 328 328 327 327 329 331 333 332 329 327 329 328 325 320 315 312 308 303 300 298 296 292 286 280 276 273 269 266 264 263 261 259 258 256 254
246 247 247 248 249 251 254 256 258 260 262 263 263 263 263 262 262 263 263 263 265 267 271 275 280 285 291 298 302 307 312 315 318 322 325 326 323 321 321 323 325 326 325 325 325 324 324 323 323 323 324 323 322 322 322 324 325 326 326 326 328 329 328 324 318 314 311 306 302 299 296 294 290 284 277 273 271 269 266 264 262 260 257 256 254
248 249 249 249 250 251 253 255 257 259 261 263 265 265 264 262 261 261 262 263 266 268 270 273 276 280 287 295 301 305 309 313 316 320 322 323 321 319 319 320 321 322 322 321 320 320 320 320 319 319 320 319 319 318 318 318 319 320 321 323 325 328 328 324 319 315 312 308 304 300 296 293 289 285 280 275 271 269 268 266 264 262 258 256 254
250 250 251 251 251 252 253 255 256 259 261 264 266 266 265 263 261 261 261 262 265 268 270 272 275 279 285 292 297 301 306 311 315 317 319 319 319 317 317 317 318 319 319 318 317 317 318 317 317 317 318 317 317 316 316 316 315 315 316 319 322 324 323 320 317 314 311 308 304 301 297 294 291 287 283 278 274 270 267 265 264 263 260 257 255
249 250 252 252 252 252 254 256 259 262 264 266 267 267 266 263 261 260 260 260 263 266 270 272 276 279 283 287 292 297 302 308 312 313 314 317 317 316 315 314 315 316 317 316 315 316 316 316 315 316 316 316 316 316 316 315 314 313 313 315 317 318 317 314 312 311 310 307 304 302 299 296 295 291 286 281 278 273 267 264 262 262 261 259 256
248 250 252 253 252 252 255 259 262 264 266 268 268 267 266 262 259 258 259 259 262 267 272 275 277 279 281 284 289 295 300 305 309 310 312 315 316 315 314 313 314 315 316 316 316 317 316 315 314 314 315 315 315 315 316 315 314 314 312 312 313 313 311 307 305 306 306 305 303 302 300 297 295 292 286 282 278 274 270 265 261 259 258 258 256
248 250 252 252 252 253 257 259 261 263 267 269 269 267 264 260 256 255 256 257 263 271 277 278 279 279 280 282 286 293 299 304 306 307 310 314 315 314 313 312 313 315 316 317 318 317 315 314 313 313 313 313 313 314 314 314 314 314 314 313 312 310 307 305 302 302 301 300 300 300 299 297 295 291 287 283 279 275 270 267 263 259 256 255 256
248 249 250 250 252 254 256 257 259 262 265 267 268 266 262 258 253 253 253 256 263 272 277 278 279 280 281 282 284 291 297 301 303 304 307 312 313 313 312 311 312 314 315 316 316 315 313 312 311 310 310 310 310 310 310 311 311 311 311 311 310 308 306 304 302 302 300 298 296 296 297 296 293 290 287 284 280 276 271 266 263 260 257 254 253
247 247 248 249 251 252 254 256 259 262 264 266 267 265 263 258 252 250 252 257 264 271 275 276 277 280 283 287 290 294 298 300 301 303 307 311 312 312 311 310 312 315 315 315 314 314 312 310 309 308 307 307 306 306 307 307 307 307 307 307 306 306 305 304 303 303 302 301 298 296 294 294 293 291 287 283 278 274 270 267 263 260 258 255 252
245 246 247 249 250 252 254 256 260 262 263 265 266 265 262 255 249 248 251 257 264 269 272 273 275 279 285 290 295 298 301 302 303 305 308 312 312 311 310 309 311 314 314 314 316 315 312 310 308 306 305 305 305 304 304 303 303 303 303 303 302 302 303 303 303 303 303 302 301 299 296 293 292 291 288 283 277 272 269 266 263 259 257 255 252
244 246 247 248 251 253 255 257 261 263 265 266 265 262 257 250 246 247 252 258 263 267 269 271 274 279 285 290 295 299 302 304 305 307 310 312 312 309 307 307 308 311 311 313 316 316 313 310 307 305 304 304 303 302 301 300 299 299 299 299 299 300 301 301 303 303 303 303 302 301 299 294 291 289 288 285 280 274 269 265 261 259 256 254 252
243 245 246 247 250 251 254 258 261 264 266 267 264 258 252 247 246 248 253 259 262 265 268 270 273 276 281 286 291 296 300 303 307 310 312 312 310 309 307 307 308 310 310 311 314 316 313 308 305 304 303 303 302 300 299 298 297 297 297 297 297 299 300 301 302 304 305 305 304 303 301 298 293 289 288 286 282 275 269 264 262 260 257 254 252
242 244 245 247 248 250 253 257 260 263 265 265 261 256 251 248 248 250 255 259 261 264 266 269 271 273 276 281 287 291 295 299 303 308 312 312 311 309 308 308 310 312 312 313 315 316 314 309 305 303 302 301 300 298 297 297 297 297 297 297 298 299 300 302 303 305 306 307 307 305 303 301 297 292 288 286 283 276 269 266 264 261 259 256 254
241 243 245 247 248 250 253 257 258 259 261 261 259 256 253 251 251 254 257 260 262 264 265 267 269 272 276 280 284 288 292 295 298 302 306 309 310 309 308 308 310 313 314 315 316 317 315 311 307 304 302 301 299 297 297 298 299 299 300 300 300 300 301 303 304 306 307 308 308 306 303 301 299 295 290 286 284 279 272 269 266 263 260 257 255
240 244 247 247 247 249 252 255 256 256 258 259 258 257 255 253 253 256 258 260 262 263 264 265 268 271 276 280 284 287 290 293 296 300 302 304 306 308 308 309 310 313 315 317 317 317 315 313 310 307 304 301 300 300 300 301 302 303 303 303 302 303 304 304 305 307 307 307 307 305 302 300 298 295 292 288 285 281 276 271 268 265 261 256 254
240 244 246 247 247 248 252 253 253 254 257 259 259 256 255 253 253 255 257 260 261 261 262 265 268 272 276 280 283 286 289 292 295 299 302 303 303 305 307 308 311 314 316 318 318 318 317 314 312 308 305 303 303 304 304 305 306 305 305 305 306 306 306 306 306 306 306 306 306 304 301 299 297 295 292 289 285 281 277 272 268 266 262 258 256
239 241 242 246 248 250 252 252 251 253 257 259 258 256 254 253 253 254 256 258 259 260 263 266 270 274 277 280 283 287 291 294 298 301 304 304 304 305 306 307 310 314 316 317 318 319 318 316 314 311 309 307 306 306 307 307 307 306 307 307 308 307 306 305 305 305 305 305 304 303 300 297 296 295 292 289 285 280 276 273 270 267 264 261 259
239 241 240 244 247 250 254 253 252 254 256 257 256 255 253 252 252 253 255 257 259 262 265 269 273 277 279 282 285 290 294 297 301 304 306 306 307 307 307 308 310 313 315 316 317 318 318 317 315 314 312 311 310 309 309 308 307 306 307 307 307 305 304 304 303 303 303 303 302 301 299 296 294 294 293 289 284 280 278 275 272 269 267 262 259
238 242 241 242 244 248 253 253 253 255 256 256 255 252 250 251 252 253 254 257 260 263 267 272 276 278 281 283 287 292 296 299 303 306 307 308 309 308 308 309 311 314 315 315 316 316 316 317 316 315 314 313 312 311 309 308 307 307 306 306 304 303 302 302 301 301 301 301 301 299 297 295 293 292 292 290 286 282 279 277 274 270 267 263 258
236 239 240 240 243 249 253 255 255 255 255 254 252 250 248 251 253 252 254 257 261 265 269 274 277 279 282 285 290 294 296 299 303 306 308 309 310 310 311 313 315 316 316 315 315 315 316 318 317 316 315 314 312 310 309 308 308 307 305 304 302 300 300 299 299 299 299 299 299 298 296 294 292 291 291 289 287 283 279 277 275 272 267 262 257
235 235 236 240 245 251 255 257 257 254 252 251 250 250 251 255 256 253 253 258 262 266 271 276 279 281 284 288 292 294 297 300 304 307 310 311 312 314 316 317 317 318 318 316 315 316 316 318 318 317 316 314 313 311 310 309 308 307 305 303 301 299 298 298 298 299 299 299 298 297 295 293 292 291 290 289 287 284 281 277 275 273 266 259 254
230 230 235 241 245 250 255 257 256 252 250 251 252 253 254 256 254 250 251 257 263 268 274 278 281 284 287 291 294 296 299 303 307 310 313 314 316 318 319 319 317 317 317 318 317 318 318 318 318 318 316 315 315 313 312 310 309 307 305 303 301 300 298 298 298 298 299 300 299 297 295 292 291 290 290 289 286 285 282 277 276 274 265 256 251
225 231 238 241 243 248 253 255 253 250 250 252 255 256 256 254 249 247 251 258 264 270 275 280 284 288 291 293 296 299 302 306 310 313 315 316 318 321 321 319 316 314 315 317 317 317 318 318 318 318 317 316 315 314 313 311 310 308 305 304 302 300 299 298 298 299 300 301 300 299 296 292 291 290 289 288 286 284 282 278 277 276 269 260 252
229 237 239 239 242 246 249 251 249 249 251 254 257 257 254 247 242 245 253 260 265 270 276 282 287 291 293 296 299 302 305 308 311 314 315 317 321 323 322 320 317 315 315 315 315 315 316 316 316 316 316 315 314 313 312 311 309 308 306 304 303 302 301 300 300 300 301 301 301 300 297 293 290 289 288 287 285 283 281 278 277 277 275 269 256
234 237 238 239 242 244 246 247 248 249 252 254 256 256 250 240 238 246 254 260 266 271 278 285 290 293 295 297 300 303 306 309 312 314 316 320 323 324 323 322 321 320 318 317 316 315 315 315 315 314 314 313 313 312 311 311 309 308 307 305 305 304 303 303 302 302 302 303 303 302 299 295 291 288 287 286 285 282 280 278 277 277 277 277 268
232 234 241 243 242 243 244 246 249 251 253 255 256 255 248 240 239 246 253 260 267 273 280 287 290 293 296 298 301 304 307 309 312 315 319 323 325 325 325 324 323 323 322 320 319 318 317 316 314 313 313 313 313 313 313 312 312 311 310 310 310 309 308 307 306 306 306 305 305 303 301 298 293 289 286 285 285 282 280 277 276 277 275 276 275
230 231 241 244 241 243 244 246 250 253 257 260 260 258 249 241 241 246 253 261 268 275 282 287 292 296 298 300 302 305 308 311 315 319 323 326 327 326 326 325 325 324 323 322 321 320 319 317 316 315 316 316 317 318 318 318 318 317 317 317 317 316 314 313 311 309 308 307 306 305 303 300 296 291 286 284 284 282 280 277 275 275 274 273 272
229 228 239 242 241 244 246 247 250 253 260 261 261 260 251 244 244 248 254 262 268 275 282 289 295 298 300 302 304 307 310 314 319 322 326 328 327 327 326 325 325 324 324 324 323 322 320 319 319 320 321 323 324 325 325 324 324 323 322 321 320 318 317 315 313 310 308 306 305 304 303 301 297 293 287 283 282 281 279 277 275 273 272 271 270
225 228 239 243 243 248 250 250 250 251 256 258 259 259 253 247 248 251 257 263 270 277 285 292 297 300 301 303 306 309 314 318 322 325 328 329 327 326 325 325 325 324 325 324 323 322 321 321 323 324 326 327 328 328 327 326 326 325 324 322 321 319 318 316 314 312 309 306 304 303 302 301 298 295 290 284 280 278 277 275 274 273 271 271 270
224 230 240 244 248 252 253 254 253 250 251 255 258 257 252 250 251 254 259 265 272 280 289 295 298 300 302 305 308 313 317 320 324 327 329 327 326 324 324 324 324 325 324 323 321 321 322 323 324 325 326 326 327 327 327 327 326 325 324 322 321 319 317 315 313 311 309 306 304 301 300 299 297 295 291 287 283 278 275 273 271 270 270 269 269
225 232 241 245 250 254 255 257 255 248 249 255 257 255 253 254 255 257 261 268 277 285 291 295 298 301 304 307 311 315 319 322 325 327 327 325 324 323 323 324 324 323 321 320 319 320 320 321 323 324 325 326 328 329 330 331 330 329 327 325 323 320 317 315 312 310 308 306 303 300 298 296 295 293 290 287 283 280 276 273 270 268 267 266 266
221 233 245 248 251 254 254 254 249 243 247 251 251 253 255 257 256 258 264 272 281 286 290 295 299 303 306 309 313 317 321 323 325 326 325 324 323 323 323 323 322 319 318 317 317 318 318 320 323 325 327 329 331 332 334 334 333 331 329 327 325 324 322 319 315 312 309 306 303 299 297 294 292 291 289 285 281 279 276 272 270 268 266 265 264
225 240 250 250 251 251 249 246 241 239 243 244 247 253 256 256 257 260 267 275 281 285 291 296 301 304 307 311 315 319 322 324 324 324 324 323 323 322 321 320 318 316 315 315 315 317 319 323 326 328 329 330 332 335 336 334 332 331 331 329 328 326 325 322 319 316 312 308 304 299 295 292 290 288 286 284 280 276 274 272 269 267 265 264 263
237 246 251 248 247 245 238 232 230 233 237 242 250 255 256 256 258 263 270 276 280 286 292 298 303 306 309 312 316 320 323 323 323 323 323 322 321 319 318 317 315 313 313 314 316 320 323 326 328 329 329 331 334 336 336 335 334 334 333 332 331 329 327 325 322 319 315 310 305 299 294 289 287 284 283 281 279 275 272 271 269 266 264 263 262
244 246 246 243 242 238 230 227 229 232 238 248 256 258 258 258 261 266 271 276 281 288 295 300 303 307 310 314 317 321 323 323 322 321 321 320 318 316 315 313 312 311 312 315 319 323 326 327 328 328 330 332 335 336 336 336 336 335 335 334 333 331 329 327 324 320 316 312 306 301 295 289 284 281 279 278 277 274 270 268 267 266 264 262 261
243 243 244 243 242 238 232 231 233 237 245 255 262 262 261 261 263 267 272 277 283 291 296 299 303 308 312 316 319 322 323 322 321 320 319 317 315 313 312 310 309 311 313 318 322 325 326 327 327 328 330 331 333 335 336 336 337 337 336 335 334 333 332 329 326 322 319 315 312 307 301 294 287 281 277 275 274 272 270 266 264 264 263 262 261
241 243 244 246 245 241 238 238 240 246 254 260 262 262 260 262 265 268 273 279 287 292 294 297 303 310 313 317 320 322 322 320 318 317 317 316 313 311 309 308 309 312 315 320 323 325 325 326 326 327 328 329 332 334 335 337 338 337 337 336 336 335 334 331 328 325 322 320 317 313 309 304 296 289 281 276 272 270 268 266 263 261 260 260 260
243 245 247 248 249 246 244 245 248 252 256 257 258 259 261 264 266 270 277 283 288 291 292 295 304 311 314 317 321 321 320 318 316 316 316 314 311 309 308 307 309 313 317 321 323 324 324 325 325 325 326 328 330 333 335 336 337 337 337 337 338 337 336 333 330 327 325 323 321 318 314 310 305 299 291 283 276 271 267 264 262 259 258 258 257
244 246 248 250 251 249 248 247 248 250 251 253 256 259 262 265 269 274 281 285 289 289 289 295 305 311 313 318 320 320 318 316 315 315 315 311 309 307 306 307 309 314 318 320 321 322 323 323 324 324 326 328 330 333 335 335 336 337 338 339 339 340 338 335 332 330 328 327 325 323 320 316 311 306 299 292 285 277 270 264 260 257 256 256 256
244 246 249 251 251 248 245 243 245 247 250 254 258 261 264 268 273 279 283 286 287 286 288 296 305 310 314 318 319 318 317 316 315 315 312 309 306 304 303 304 308 314 317 319 320 321 322 323 324 325 326 328 330 332 333 334 336 338 339 340 341 341 340 337 334 332 332 331 331 329 326 323 319 315 308 302 294 286 278 269 262 257 254 254 254
246 248 249 249 246 242 241 243 247 250 253 256 259 262 267 273 279 283 285 285 285 284 288 297 305 310 315 317 318 318 318 317 316 314 310 306 303 301 299 301 307 313 316 318 320 321 322 323 324 325 326 328 330 331 332 334 336 338 340 341 342 342 341 339 336 335 335 336 335 334 332 328 326 322 317 312 305 296 287 276 268 260 254 253 253
247 247 246 244 241 241 244 247 251 254 256 259 261 265 271 277 281 284 284 283 283 285 291 299 306 311 315 316 318 319 319 317 314 311 307 303 301 299 299 302 308 313 316 318 320 321 322 323 324 325 327 328 329 331 332 334 336 338 340 342 343 343 343 341 339 338 338 338 337 337 335 333 331 327 324 320 315 308 298 285 275 266 257 253 252
245 245 244 243 243 246 250 253 256 258 261 264 266 270 273 275 281 285 284 283 286 290 295 302 308 312 314 316 317 318 317 315 312 308 303 301 299 298 299 303 309 313 316 318 319 320 321 323 324 326 326 327 328 330 332 334 335 337 340 342 343 344 343 342 340 340 339 339 339 339 338 336 335 332 329 326 323 317 309 297 284 273 263 256 253
245 246 245 246 248 250 253 257 259 262 265 267 269 271 271 271 279 285 285 286 292 295 299 305 310 313 315 315 315 314 314 312 308 304 301 299 297 296 298 303 308 311 314 317 318 319 321 323 325 326 326 326 327 329 331 333 335 337 341 343 344 344 343 342 341 340 340 340 340 341 340 339 338 336 334 332 329 325 319 309 296 283 273 264 258
246 248 248 248 250 252 255 259 262 265 267 267 268 269 268 269 279 285 287 291 296 299 302 308 312 314 315 314 312 311 310 309 306 302 299 297 296 295 297 301 306 309 312 315 317 319 321 324 325 326 326 326 327 328 330 332 335 338 341 343 344 344 343 342 341 341 340 340 341 342 341 341 341 338 337 335 333 331 327 320 311 298 285 275 265
Height
5858 5858 5859 5859 5859 5859 5859 5859 5860 5860 5860 5860 5860 5859 5859 5858 5858 5858 5857 5857 5856 5856 5855 5854 5854 5853 5852 5851 5850 5849 5848 5847 5845 5844 5842 5840 5839 5837 5836 5835 5834 5833 5832 5831 5830 5829 5827 5826 5825 5823 5822 5821 5819 5818 5816 5815 5814 5814 5813 5812 5811 5810 5809 5809 5808 5808 5807 5807 5807 5806 5806 5806 5806 5806 5805 5805 5805 5805 5806 5806 5807 5807 5806 5806 5806
5856 5856 5857 5857 5857 5857 5858 5858 5858 5858 5859 5858 5858 5858 5858 5857 5857 5857 5856 5856 5855 5855 5854 5854 5853 5852 5851 5850 5849 5849 5847 5846 5845 5843 5842 5840 5838 5837 5836 5834 5833 5832 5831 5830 5829 5828 5827 5825 5824 5823 5821 5820 5819 5817 5816 5814 5813 5813 5812 5811 5810 5809 5808 5807 5807 5807 5806 5806 5805 5805 5805 5805 5805 5804 5804 5804 5804 5804 5804 5805 5805 5805 5805 5805 5805
5854 5854 5855 5855 5856 5856 5856 5856 5856 5856 5857 5857 5857 5856 5856 5856 5856 5855 5855 5855 5854 5854 5853 5853 5852 5851 5850 5849 5848 5847 5846 5845 5844 5842 5841 5839 5838 5836 5835 5834 5832 5831 5830 5829 5828 5827 5826 5825 5823 5822 5821 5819 5818 5816 5815 5814 5812 5811 5811 5810 5809 5808 5807 5806 5806 5805 5805 5804 5804 5804 5804 5804 5803 5803 5803 5803 5803 5803 5803 5803 5803 5804 5804 5804 5803
5852 5852 5853 5853 5854 5854 5854 5854 5854 5854 5855 5855 5855 5855 5855 5855 5855 5854 5854 5853 5853 5852 5852 5851 5851 5850 5849 5848 5847 5846 5845 5843 5842 5841 5840 5838 5837 5835 5834 5833 5831 5830 5829 5828 5827 5825 5824 5823 5822 5821 5820 5818 5817 5816 5814 5813 5811 5810 5809 5808 5807 5806 5805 5805 5805 5804 5804 5803 5803 5803 5803 5803 5802 5802 5802 5802 5802 5802 5802 5801 5801 5802 5802 5802 5802
5850 5850 5851 5851 5852 5852 5852 5852 5852 5852 5853 5853 5853 5853 5853 5853 5853 5853 5852 5852 5851 5851 5850 5850 5849 5848 5848 5847 5846 5845 5844 5842 5841 5840 5839 5837 5836 5834 5833 5831 5829 5828 5827 5826 5825 5824 5823 5822 5821 5820 5819 5817 5816 5815 5813 5812 5810 5809 5808 5806 5805 5805 5804 5804 5804 5803 5803 5802 5802 5801 5801 5801 5801 5801 5801 5801 5801 5801 5800 5800 5800 5800 5800 5800 5800
5848 5848 5849 5849 5850 5850 5851 5851 5850 5850 5851 5851 5851 5851 5851 5851 5851 5851 5850 5850 5850 5849 5849 5848 5848 5847 5846 5846 5845 5843 5843 5842 5840 5839 5838 5836 5835 5833 5831 5830 5828 5826 5825 5824 5823 5822 5821 5820 5819 5818 5818 5816 5815 5814 5812 5811 5810 5808 5806 5805 5804 5804 5804 5803 5803 5802 5801 5801 5800 5800 5800 5800 5799 5799 5799 5799 5799 5799 5799 5798 5798 5798 5798 5798 5798
5846 5847 5847 5847 5848 5848 5848 5848 5848 5848 5849 5849 5849 5849 5849 5849 5849 5849 5849 5848 5848 5848 5847 5847 5846 5845 5845 5845 5843 5842 5841 5841 5839 5838 5836 5835 5834 5832 5830 5829 5827 5825 5824 5822 5822 5821 5820 5818 5818 5817 5816 5815 5814 5813 5812 5810 5809 5807 5805 5804 5804 5803 5803 5802 5801 5800 5800 5799 5799 5798 5798 5798 5798 5797 5797 5797 5797 5797 5797 5797 5796 5796 5796 5796 5796
5845 5845 5845 5845 5845 5846 5846 5846 5846 5846 5846 5847 5847 5847 5847 5847 5847 5847 5847 5846 5846 5846 5845 5845 5844 5844 5844 5843 5842 5841 5840 5839 5838 5837 5835 5834 5832 5831 5829 5828 5826 5824 5823 5821 5820 5819 5818 5817 5816 5815 5815 5814 5812 5811 5810 5809 5808 5806 5804 5803 5803 5802 5801 5800 5799 5799 5798 5797 5797 5796 5796 5795 5795 5795 5795 5795 5795 5795 5795 5795 5794 5794 5794 5794 5794
5843 5843 5843 5843 5843 5843 5844 5843 5844 5844 5844 5844 5845 5845 5845 5845 5845 5845 5845 5844 5844 5844 5843 5843 5842 5842 5842 5841 5840 5839 5838 5837 5836 5835 5834 5833 5831 5830 5829 5827 5825 5824 5822 5821 5819 5818 5817 5816 5815 5814 5813 5812 5811 5810 5809 5808 5807 5805 5803 5802 5801 5801 5800 5799 5798 5797 5796 5795 5795 5794 5793 5793 5793 5793 5793 5792 5792 5792 5792 5792 5792 5792 5792 5792 5792
5841 5841 5842 5842 5841 5841 5841 5841 5842 5842 5842 5843 5843 5843 5843 5843 5843 5843 5843 5842 5842 5842 5841 5841 5840 5840 5840 5839 5838 5838 5837 5836 5835 5834 5832 5831 5830 5829 5827 5826 5824 5823 5821 5820 5818 5817 5815 5814 5813 5812 5811 5810 5809 5808 5807 5806 5805 5804 5802 5801 5800 5800 5799 5797 5796 5796 5794 5793 5792 5791 5791 5791 5791 5790 5790 5790 5790 5790 5790 5790 5790 5790 5790 5790 5790
5839 5839 5839 5840 5839 5839 5839 5839 5840 5840 5840 5841 5841 5841 5841 5841 5841 5841 5841 5840 5840 5840 5840 5839 5838 5838 5837 5837 5836 5836 5835 5834 5833 5832 5831 5830 5829 5827 5826 5825 5823 5822 5820 5818 5817 5815 5814 5813 5812 5810 5809 5808 5806 5806 5805 5804 5803 5802 5801 5800 5799 5798 5797 5795 5794 5793 5792 5791 5789 5789 5788 5788 5788 5788 5788 5788 5787 5787 5787 5787 5788 5788 5788 5788 5788
5837 5837 5837 5837 5837 5837 5837 5837 5838 5838 5838 5838 5839 5839 5839 5839 5839 5839 5838 5838 5838 5838 5838 5837 5836 5836 5835 5835 5835 5834 5834 5833 5832 5831 5829 5828 5827 5826 5824 5823 5822 5821 5819 5817 5816 5814 5813 5811 5810 5809 5807 5806 5804 5803 5802 5801 5800 5799 5799 5798 5797 5796 5795 5793 5792 5791 5790 5789 5788 5787 5786 5786 5785 5785 5785 5784 5785 5784 5784 5785 5785 5785 5785 5785 5786
5835 5835 5835 5835 5835 5835 5835 5835 5835 5835 5836 5836 5836 5836 5836 5836 5836 5836 5836 5836 5836 5836 5836 5835 5835 5834 5834 5833 5833 5832 5832 5831 5831 5829 5828 5826 5825 5824 5823 5821 5820 5819 5817 5816 5814 5813 5811 5810 5808 5807 5805 5804 5802 5801 5800 5799 5798 5797 5796 5795 5794 5793 5792 5791 5790 5789 5788 5787 5786 5785 5784 5783 5783 5782 5781 5781 5781 5781 5781 5782 5782 5782 5782 5783 5783
5832 5833 5832 5832 5833 5833 5833 5833 5833 5833 5833 5833 5833 5833 5833 5833 5834 5834 5834 5834 5834 5834 5834 5834 5833 5832 5832 5831 5831 5830 5830 5829 5829 5828 5826 5825 5824 5823 5821 5820 5818 5817 5816 5814 5813 5811 5810 5808 5807 5805 5804 5802 5801 5799 5798 5797 5796 5795 5794 5792 5791 5790 5789 5788 5787 5786 5786 5785 5784 5783 5782 5780 5780 5779 5778 5778 5778 5778 5778 5778 5778 5779 5779 5779 5780
5830 5830 5830 5830 5830 5830 5830 5831 5831 5831 5831 5831 5831 5831 5831 5831 5832 5832 5832 5832 5832 5832 5832 5832 5832 5831 5830 5829 5829 5828 5828 5827 5827 5826 5825 5823 5822 5821 5820 5818 5817 5816 5815 5813 5812 5810 5808 5807 5805 5803 5802 5800 5799 5798 5796 5795 5794 5792 5791 5790 5789 5787 5786 5785 5784 5783 5782 5782 5781 5780 5779 5778 5777 5776 5775 5774 5774 5774 5774 5774 5775 5775 5775 5776 5777
5828 5828 5828 5828 5828 5828 5828 5829 5829 5829 5829 5829 5829 5829 5829 5829 5829 5830 5830 5830 5830 5830 5830 5830 5830 5829 5828 5827 5826 5826 5825 5824 5824 5823 5822 5821 5820 5819 5818 5817 5815 5814 5813 5812 5810 5809 5807 5805 5803 5801 5800 5799 5797 5796 5794 5793 5791 5790 5789 5787 5786 5784 5783 5782 5781 5780 5779 5778 5777 5777 5776 5775 5774 5773 5772 5771 5771 5770 5770 5770 5770 5771 5772 5772 5773
5825 5825 5825 5826 5826 5826 5826 5827 5827 5827 5827 5827 5827 5827 5827 5827 5828 5828 5828 5828 5828 5828 5828 5828 5828 5827 5826 5826 5825 5824 5823 5822 5821 5820 5819 5818 5817 5816 5816 5815 5814 5812 5811 5810 5809 5807 5805 5803 5801 5799 5798 5797 5795 5794 5792 5791 5789 5787 5786 5785 5783 5781 5780 5779 5778 5776 5775 5774 5773 5773 5772 5772 5771 5770 5769 5768 5768 5767 5766 5766 5766 5767 5768 5768 5769
5822 5822 5823 5823 5823 5824 5824 5825 5825 5825 5825 5825 5825 5826 5826 5826 5826 5826 5826 5826 5826 5826 5826 5826 5826 5826 5825 5824 5823 5822 5821 5820 5818 5816 5814 5814 5815 5814 5813 5812 5811 5810 5809 5808 5807 5806 5804 5801 5799 5797 5795 5794 5793 5791 5790 5788 5787 5785 5783 5782 5780 5778 5777 5776 5775 5773 5772 5771 5770 5769 5769 5768 5768 5766 5765 5765 5764 5764 5763 5762 5763 5763 5764 5765 5765
5819 5820 5820 5821 5821 5822 5822 5822 5823 5823 5823 5823 5824 5824 5825 5825 5825 5825 5825 5825 5825 5825 5824 5824 5824 5824 5823 5823 5822 5821 5820 5819 5818 5815 5812 5810 5809 5810 5810 5809 5809 5808 5807 5806 5805 5803 5802 5800 5797 5795 5793 5792 5791 5789 5787 5785 5784 5782 5780 5779 5777 5776 5774 5773 5771 5770 5769 5767 5767 5766 5765 5765 5764 5763 5762 5761 5760 5760 5759 5759 5759 5760 5760 5761 5762
5816 5817 5818 5819 5819 5820 5820 5821 5821 5821 5821 5822 5822 5823 5823 5824 5824 5824 5823 5823 5823 5823 5823 5822 5822 5822 5821 5821 5820 5820 5819 5818 5817 5816 5813 5809 5806 5805 5805 5806 5806 5806 5804 5803 5803 5801 5799 5797 5795 5793 5791 5790 5788 5786 5784 5783 5781 5779 5778 5776 5775 5773 5771 5770 5768 5767 5766 5764 5763 5762 5761 5760 5760 5759 5758 5758 5757 5756 5756 5755 5755 5756 5756 5757 5757
5813 5815 5816 5817 5817 5818 5818 5819 5819 5819 5820 5820 5821 5822 5822 5822 5822 5822 5822 5822 5822 5821 5821 5821 5820 5820 5820 5819 5818 5818 5817 5816 5815 5814 5813 5811 5808 5804 5802 5801 5802 5802 5802 5801 5800 5799 5797 5795 5793 5791 5789 5787 5785 5783 5782 5780 5778 5777 5775 5774 5772 5770 5769 5767 5765 5764 5762 5761 5760 5758 5757 5756 5756 5755 5755 5754 5753 5753 5753 5752 5752 5752 5752 5753 5753
5811 5813 5814 5814 5814 5816 5816 5816 5817 5817 5818 5819 5819 5820 5820 5820 5820 5820 5820 5820 5820 5820 5819 5819 5819 5819 5818 5817 5817 5816 5815 5815 5814 5812 5811 5809 5808 5805 5802 5800 5798 5798 5798 5797 5797 5796 5795 5793 5791 5789 5787 5784 5782 5780 5779 5777 5775 5774 5773 5771 5769 5768 5766 5764 5762 5761 5759 5757 5756 5755 5754 5753 5752 5752 5751 5750 5750 5749 5749 5748 5748 5747 5748 5749 5749
5808 5810 5812 5812 5812 5814 5814 5814 5814 5815 5816 5816 5817 5818 5818 5818 5819 5819 5819 5818 5818 5818 5818 5817 5817 5817 5816 5816 5815 5814 5813 5813 5811 5810 5809 5808 5806 5804 5802 5800 5798 5796 5795 5794 5793 5793 5792 5790 5788 5786 5784 5782 5780 5778 5776 5775 5773 5771 5770 5768 5767 5765 5763 5761 5759 5758 5756 5754 5753 5752 5751 5750 5748 5748 5747 5747 5746 5745 5745 5745 5744 5743 5744 5745 5745
5806 5807 5808 5809 5810 5811 5812 5812 5812 5813 5813 5814 5815 5815 5816 5816 5816 5817 5817 5817 5816 5816 5815 5815 5815 5815 5814 5814 5813 5812 5811 5810 5809 5808 5807 5806 5805 5803 5801 5799 5797 5796 5794 5793 5791 5790 5788 5787 5785 5783 5781 5779 5777 5775 5773 5772 5770 5768 5767 5765 5764 5762 5760 5758 5756 5755 5753 5751 5750 5748 5747 5746 5745 5744 5743 5743 5743 5742 5741 5741 5740 5740 5739 5740 5741
5804 5804 5804 5806 5807 5808 5809 5810 5810 5811 5811 5812 5813 5813 5814 5814 5814 5814 5814 5814 5814 5814 5813 5813 5813 5812 5812 5812 5811 5810 5809 5809 5807 5806 5805 5804 5803 5801 5799 5797 5796 5794 5793 5791 5789 5787 5786 5784 5782 5780 5778 5776 5774 5773 5771 5769 5767 5766 5764 5762 5761 5759 5757 5755 5753 5751 5750 5748 5746 5745 5744 5743 5742 5741 5740 5739 5738 5738 5737 5737 5736 5736 5735 5735 5736
5801 5801 5801 5803 5805 5806 5807 5807 5808 5808 5809 5810 5810 5811 5812 5812 5812 5812 5812 5812 5812 5812 5811 5811 5811 5811 5810 5810 5809 5808 5808 5807 5806 5804 5803 5802 5801 5799 5797 5795 5794 5792 5791 5789 5787 5785 5783 5781 5779 5777 5775 5774 5772 5770 5768 5766 5765 5763 5761 5760 5758 5755 5754 5752 5750 5748 5746 5745 5743 5742 5740 5739 5738 5737 5736 5735 5734 5734 5734 5733 5732 5732 5732 5731 5732
5799 5799 5799 5801 5802 5803 5804 5805 5806 5806 5807 5808 5808 5809 5809 5810 5810 5810 5810 5810 5810 5810 5809 5809 5809 5809 5808 5808 5807 5806 5805 5805 5803 5802 5801 5800 5799 5798 5796 5793 5791 5789 5788 5787 5784 5782 5780 5778 5776 5774 5773 5771 5769 5768 5766 5764 5762 5760 5758 5757 5755 5752 5750 5748 5746 5744 5743 5741 5739 5738 5736 5735 5734 5733 5732 5731 5730 5730 5730 5729 5728 5727 5727 5727 5727
5796 5796 5797 5797 5799 5800 5801 5802 5803 5804 5805 5805 5806 5807 5807 5807 5807 5808 5808 5808 5808 5808 5808 5808 5807 5807 5806 5805 5805 5804 5803 5802 5801 5800 5799 5798 5797 5795 5794 5792 5789 5787 5785 5783 5781 5779 5777 5775 5773 5772 5770 5768 5766 5765 5763 5761 5759 5758 5756 5754 5752 5749 5747 5745 5743 5741 5739 5737 5736 5734 5733 5731 5730 5729 5728 5727 5726 5725 5725 5725 5723 5722 5722 5722 5722
5794 5793 5793 5795 5796 5798 5799 5800 5801 5802 5802 5803 5804 5804 5805 5805 5805 5806 5806 5806 5806 5806 5806 5806 5805 5805 5804 5803 5802 5802 5801 5800 5799 5798 5797 5796 5794 5793 5791 5790 5788 5786 5783 5781 5779 5776 5774 5773 5771 5769 5767 5765 5763 5762 5760 5758 5756 5754 5753 5751 5749 5746 5744 5742 5739 5737 5735 5733 5732 5730 5729 5727 5726 5725 5724 5723 5722 5721 5721 5720 5719 5717 5716 5716 5717
5791 5790 5790 5792 5794 5795 5797 5798 5799 5800 5800 5801 5801 5802 5802 5803 5803 5804 5804 5804 5804 5804 5804 5804 5803 5803 5802 5801 5800 5799 5798 5798 5796 5795 5794 5793 5792 5790 5789 5787 5786 5784 5782 5780 5778 5775 5773 5771 5769 5767 5765 5763 5761 5759 5757 5755 5753 5751 5749 5747 5745 5743 5740 5738 5736 5733 5731 5729 5728 5726 5725 5724 5722 5721 5720 5719 5718 5717 5717 5716 5715 5713 5712 5711 5712
5789 5789 5788 5789 5791 5793 5794 5796 5797 5797 5798 5798 5799 5800 5800 5801 5801 5802 5802 5802 5802 5802 5802 5802 5801 5801 5800 5799 5798 5797 5796 5795 5794 5793 5792 5790 5789 5787 5786 5784 5783 5781 5779 5777 5776 5774 5771 5769 5767 5765 5763 5761 5759 5757 5754 5752 5750 5748 5746 5744 5742 5740 5738 5735 5732 5730 5728 5725 5724 5722 5721 5720 5718 5717 5716 5715 5714 5713 5712 5711 5710 5709 5708 5707 5707
5787 5788 5788 5788 5789 5791 5792 5793 5794 5794 5795 5796 5797 5798 5799 5799 5799 5800 5800 5800 5800 5800 5800 5800 5799 5798 5798 5797 5796 5795 5794 5793 5792 5791 5789 5788 5786 5785 5783 5781 5780 5778 5776 5775 5773 5771 5769 5767 5765 5763 5761 5759 5757 5754 5752 5750 5748 5746 5744 5742 5739 5737 5735 5733 5730 5727 5725 5722 5720 5718 5717 5716 5714 5713 5712 5710 5709 5709 5708 5707 5706 5705 5704 5703 5703
5785 5787 5786 5786 5788 5789 5790 5791 5791 5792 5793 5794 5795 5796 5797 5797 5797 5797 5798 5798 5798 5798 5798 5798 5797 5796 5795 5795 5794 5793 5792 5791 5789 5788 5787 5785 5784 5782 5780 5779 5777 5775 5773 5772 5770 5768 5767 5765 5763 5761 5759 5757 5754 5752 5750 5748 5746 5743 5741 5739 5737 5735 5732 5730 5727 5725 5722 5719 5717 5714 5713 5711 5710 5709 5707 5706 5705 5704 5703 5702 5702 5701 5700 5700 5699
5783 5784 5784 5784 5786 5787 5788 5788 5789 5790 5791 5792 5793 5794 5794 5795 5795 5795 5796 5796 5796 5796 5796 5796 5795 5794 5793 5793 5792 5791 5790 5788 5787 5785 5784 5782 5781 5779 5778 5776 5774 5773 5771 5769 5767 5766 5764 5762 5760 5758 5756 5754 5752 5750 5748 5745 5743 5741 5739 5736 5734 5731 5729 5727 5724 5722 5719 5716 5713 5711 5709 5707 5706 5704 5703 5702 5700 5700 5699 5698 5697 5696 5696 5696 5695
5780 5782 5782 5783 5784 5785 5785 5786 5787 5788 5789 5790 5791 5792 5792 5793 5793 5793 5794 5794 5794 5794 5794 5793 5793 5792 5791 5791 5790 5789 5787 5786 5784 5783 5781 5780 5778 5777 5775 5773 5771 5770 5768 5766 5765 5763 5761 5759 5757 5755 5753 5751 5749 5747 5745 5743 5741 5738 5736 5733 5731 5728 5726 5723 5720 5718 5715 5712 5710 5707 5704 5702 5701 5700 5699 5697 5696 5695 5694 5693 5693 5692 5692 5691 5691
5778 5780 5780 5781 5782 5782 5783 5784 5784 5786 5787 5788 5789 5790 5790 5791 5791 5791 5791 5791 5792 5792 5792 5791 5791 5790 5789 5789 5788 5787 5785 5784 5782 5781 5779 5778 5776 5774 5773 5771 5769 5767 5766 5764 5762 5761 5759 5757 5755 5753 5751 5749 5747 5745 5743 5741 5739 5736 5734 5731 5728 5726 5723 5720 5717 5714 5711 5709 5706 5703 5700 5698 5696 5695 5694 5692 5691 5690 5689 5688 5688 5687 5687 5687 5686
5777 5777 5778 5779 5780 5780 5781 5781 5782 5783 5785 5786 5787 5788 5788 5789 5789 5789 5789 5789 5789 5790 5789 5789 5789 5788 5787 5786 5785 5784 5783 5781 5780 5778 5777 5776 5774 5772 5770 5768 5767 5765 5763 5762 5760 5758 5757 5755 5753 5751 5749 5747 5745 5743 5740 5738 5735 5733 5730 5728 5725 5722 5719 5716 5713 5710 5707 5704 5702 5699 5696 5694 5691 5690 5689 5687 5686 5685 5684 5683 5683 5682 5682 5682 5682
5774 5775 5776 5776 5777 5777 5778 5779 5780 5781 5782 5784 5785 5785 5786 5786 5786 5786 5787 5787 5787 5787 5787 5787 5786 5786 5785 5784 5783 5782 5780 5779 5778 5776 5775 5773 5771 5770 5768 5766 5764 5763 5761 5760 5758 5756 5755 5753 5751 5749 5746 5744 5742 5740 5738 5735 5733 5730 5727 5724 5721 5717 5714 5711 5708 5705 5702 5699 5696 5694 5691 5689 5686 5684 5683 5682 5681 5679 5678 5677 5677 5677 5677 5677 5677
5771 5772 5773 5773 5774 5774 5775 5776 5777 5779 5780 5781 5782 5783 5783 5783 5784 5784 5784 5785 5785 5785 5785 5784 5784 5783 5782 5782 5781 5779 5778 5776 5775 5774 5772 5771 5769 5767 5765 5764 5762 5761 5759 5758 5756 5754 5752 5750 5748 5746 5744 5742 5739 5737 5735 5733 5730 5727 5723 5720 5716 5713 5709 5706 5703 5699 5696 5693 5690 5687 5685 5682 5680 5678 5677 5676 5675 5674 5673 5672 5672 5671 5671 5671 5672
5769 5770 5770 5770 5771 5772 5773 5774 5775 5776 5778 5779 5780 5780 5781 5781 5781 5782 5782 5783 5783 5783 5782 5782 5782 5781 5780 5779 5778 5777 5775 5774 5772 5771 5770 5768 5766 5765 5763 5761 5760 5758 5757 5755 5753 5752 5750 5748 5746 5743 5741 5739 5736 5734 5732 5729 5726 5723 5720 5716 5712 5709 5705 5701 5697 5693 5689 5685 5682 5679 5677 5675 5673 5671 5670 5669 5668 5668 5667 5667 5666 5666 5666 5666 5666
5767 5767 5768 5768 5769 5770 5771 5772 5773 5774 5776 5777 5778 5778 5778 5779 5779 5780 5780 5780 5780 5780 5780 5780 5779 5778 5777 5776 5775 5774 5772 5771 5770 5768 5767 5765 5764 5762 5761 5759 5757 5756 5754 5753 5751 5749 5747 5745 5743 5740 5738 5736 5733 5731 5728 5726 5723 5720 5716 5712 5708 5704 5700 5695 5690 5686 5681 5677 5673 5671 5669 5667 5665 5663 5662 5661 5661 5661 5661 5661 5660 5660 5660 5660 5660
5765 5766 5766 5767 5768 5768 5769 5770 5771 5772 5774 5775 5775 5776 5776 5777 5777 5778 5778 5778 5778 5778 5778 5777 5776 5775 5774 5773 5772 5771 5769 5768 5767 5766 5764 5763 5761 5760 5758 5757 5755 5753 5752 5750 5748 5746 5744 5742 5740 5737 5735 5733 5730 5728 5725 5723 5720 5716 5713 5709 5704 5700 5695 5689 5684 5678 5674 5670 5666 5663 5661 5659 5657 5656 5654 5653 5653 5653 5654 5654 5655 5655 5654 5654 5655
5763 5764 5765 5766 5767 5767 5767 5768 5769 5770 5771 5772 5773 5773 5774 5775 5775 5776 5776 5776 5776 5775 5775 5775 5774 5773 5772 5771 5769 5768 5767 5765 5764 5763 5762 5760 5759 5757 5756 5754 5752 5751 5749 5747 5745 5743 5741 5739 5737 5735 5732 5730 5727 5725 5722 5720 5716 5713 5709 5705 5701 5696 5690 5685 5679 5673 5669 5665 5661 5657 5654 5652 5650 5649 5647 5646 5646 5646 5646 5647 5648 5648 5649 5649 5649
5762 5762 5763 5764 5765 5765 5766 5766 5767 5768 5769 5770 5771 5771 5772 5773 5773 5773 5773 5773 5773 5773 5773 5772 5771 5770 5770 5768 5767 5766 5764 5763 5762 5760 5759 5757 5756 5754 5753 5751 5750 5748 5747 5745 5742 5740 5738 5736 5734 5732 5729 5727 5725 5722 5719 5717 5713 5710 5706 5702 5697 5692 5686 5680 5675 5670 5665 5661 5658 5654 5650 5647 5645 5643 5641 5640 5639 5639 5639 5639 5640 5641 5642 5643 5643
5760 5761 5761 5762 5763 5763 5764 5764 5765 5766 5767 5767 5768 5769 5770 5770 5771 5771 5771 5771 5771 5770 5770 5769 5769 5768 5767 5766 5765 5763 5762 5760 5759 5758 5756 5755 5753 5752 5750 5749 5747 5746 5744 5742 5740 5738 5736 5733 5731 5729 5727 5724 5722 5719 5716 5714 5711 5707 5703 5698 5693 5688 5682 5677 5672 5667 5663 5659 5655 5651 5647 5644 5642 5639 5637 5635 5634 5633 5632 5633 5633 5634 5636 5636 5637
5758 5758 5759 5760 5761 5761 5762 5762 5763 5764 5764 5765 5766 5767 5767 5768 5768 5768 5768 5768 5767 5767 5767 5767 5766 5765 5764 5763 5762 5761 5759 5758 5756 5755 5753 5752 5751 5749 5748 5746 5745 5743 5741 5739 5737 5735 5733 5731 5728 5726 5723 5721 5719 5716 5714 5711 5708 5704 5700 5695 5690 5685 5680 5675 5670 5666 5661 5657 5653 5649 5645 5641 5638 5636 5634 5631 5629 5628 5627 5627 5627 5628 5629 5630 5631
5756 5756 5757 5758 5759 5759 5760 5760 5761 5762 5762 5763 5764 5764 5765 5765 5765 5765 5765 5765 5764 5764 5764 5764 5763 5763 5761 5760 5759 5758 5757 5755 5754 5752 5751 5749 5748 5747 5746 5744 5742 5741 5739 5736 5734 5732 5730 5728 5725 5723 5720 5718 5716 5713 5711 5708 5704 5701 5696 5692 5687 5683 5678 5672 5668 5663 5659 5655 5651 5647 5643 5639 5636 5633 5631 5629 5626 5624 5623 5622 5622 5623 5624 5624 5625
5754 5755 5755 5756 5757 5757 5758 5758 5759 5759 5760 5761 5761 5762 5762 5762 5762 5762 5762 5762 5762 5762 5762 5761 5760 5760 5758 5757 5756 5755 5754 5752 5751 5749 5748 5746 5745 5744 5743 5741 5740 5738 5736 5734 5731 5729 5727 5725 5722 5720 5717 5715 5713 5710 5707 5704 5701 5697 5693 5689 5684 5679 5675 5670 5665 5661 5657 5653 5649 5645 5641 5638 5634 5631 5629 5626 5624 5622 5620 5619 5618 5618 5618 5619 5619
5752 5752 5753 5754 5755 5755 5756 5756 5757 5757 5758 5758 5759 5759 5760 5760 5759 5759 5759 5759 5759 5759 5759 5758 5757 5756 5755 5754 5753 5752 5751 5749 5748 5746 5745 5744 5742 5741 5740 5738 5737 5735 5733 5731 5729 5727 5724 5722 5719 5717 5714 5712 5710 5707 5704 5701 5698 5694 5690 5686 5681 5677 5672 5668 5663 5659 5656 5652 5648 5644 5640 5636 5633 5630 5627 5625 5622 5620 5618 5617 5615 5614 5614 5614 5614
5749 5750 5751 5752 5752 5753 5753 5753 5754 5755 5755 5756 5756 5757 5757 5757 5757 5757 5757 5757 5756 5756 5755 5755 5754 5753 5752 5751 5750 5749 5748 5747 5745 5744 5742 5741 5740 5739 5737 5736 5734 5732 5730 5728 5726 5724 5722 5719 5716 5714 5712 5709 5706 5704 5701 5698 5694 5691 5687 5683 5678 5674 5670 5666 5662 5658 5654 5650 5646 5643 5639 5635 5632 5629 5626 5623 5621 5618 5616 5615 5613 5612 5611 5611 5611
5746 5747 5748 5748 5749 5750 5750 5750 5751 5752 5753 5753 5753 5754 5754 5754 5754 5754 5754 5754 5753 5753 5752 5752 5751 5750 5749 5748 5747 5746 5745 5743 5742 5740 5739 5738 5737 5736 5734 5733 5731 5730 5727 5725 5723 5721 5719 5716 5714 5711 5709 5706 5703 5700 5697 5694 5691 5688 5684 5680 5676 5672 5668 5664 5660 5656 5652 5649 5645 5642 5638 5634 5631 5628 5625 5622 5620 5617 5615 5613 5611 5610 5609 5608 5608